Location: Cluny
(50.9333°N, 112.8167°W)
Time: 03:56:49
(UTC-06:00)

Amateur Radio Satellites - All Passes

Search period start: 26 June 2016 03:26
Search period end: 27 June 2016 03:26
Location: Cluny, 50.9333°N, 112.8167°W

Satellite Date Start Highest point End Downlink Frequencies (MHz)
Time Altitude Azimuth
STARS 26 Jun 03:34:59 03:38:17 21° 60° (ENE) 03:41:36 437.465
YUBILEINY 26 Jun 03:41:04 03:45:48 16° 290° (WNW) 03:50:32 435.215
AO-7 26 Jun 03:46:01 03:51:34 19° 86° (E) 03:57:05 29.400- 29.500
GONETS M04 26 Jun 03:47:08 03:50:56 13° 40° (NE) 03:54:44
Cosmos 2499 26 Jun 03:49:03 03:49:58 10° 32° (NNE) 03:50:52 435.465 / 435.565
MOZHAYETS 4 26 Jun 03:59:01 04:03:31 52° 70° (ENE) 04:08:02
SWISSCUBE 26 Jun 04:07:40 04:11:10 20° 270° (W) 04:14:41 437.505
BEESAT 3 26 Jun 04:10:59 04:14:31 33° 121° (ESE) 04:18:06 437.485
AIST 1 26 Jun 04:15:21 04:18:48 23° 67° (ENE) 04:22:14
AO-85 26 Jun 04:15:21 04:18:34 17° 7° (N) 04:21:37 145.980
O/OREOS (USA 219) 26 Jun 04:18:01 04:22:24 54° 112° (ESE) 04:26:47 437.305
PCSat 26 Jun 04:26:02 04:31:29 89° 115° (ESE) 04:36:57 145.827
JAS-2 26 Jun 04:28:31 04:32:30 19° 311° (NW) 04:36:15 435.910
KKS-1 26 Jun 04:29:53 04:34:18 72° 257° (WSW) 04:38:45 437.445
Gurwin Techsat 1B 26 Jun 04:32:40 04:37:51 53° 292° (WNW) 04:43:01 435.225
ITUPSAT 1 26 Jun 04:33:47 04:36:11 14° 273° (W) 04:38:37 437.325
BEESAT 26 Jun 04:34:54 04:37:08 13° 274° (W) 04:39:22 436.000
Oscar 19 26 Jun 04:39:35 04:43:42 25° 301° (WNW) 04:47:46 437.125/150
Cosmos 2504 26 Jun 04:42:19 04:48:04 20° 288° (WNW) 04:53:46 435.465 / 435.565
BEESAT 2 26 Jun 04:42:53 04:46:36 39° 122° (ESE) 04:50:20 435.950
ITAMSAT 1 26 Jun 04:54:53 05:00:10 82° 288° (WNW) 05:05:25 435.822/435.867
Cosmos 2491 26 Jun 04:58:39 05:04:10 18° 313° (NW) 05:09:43 435.465 / 435.565
STARS 26 Jun 05:10:03 05:14:20 54° 259° (W) 05:18:39 437.465
CUBESAT XI-V 26 Jun 05:18:52 05:23:20 44° 68° (ENE) 05:27:48 437.345
STRAND 1 26 Jun 05:35:48 05:36:18 10° 46° (NE) 05:36:48 437.568
MOZHAYETS 4 26 Jun 05:37:20 05:40:59 23° 269° (W) 05:44:40
AO-7 26 Jun 05:37:23 05:45:50 74° 107° (ESE) 05:54:12 29.400- 29.500
Cosmos 2499 26 Jun 05:38:55 05:46:45 33° 60° (ENE) 05:54:18 435.465 / 435.565
HORYU 2 26 Jun 05:41:45 05:45:25 24° 93° (E) 05:49:04 437.375
GONETS M04 26 Jun 05:42:24 05:50:42 45° 67° (ENE) 05:58:58
BEESAT 3 26 Jun 05:48:27 05:52:10 38° 321° (NW) 05:55:55 437.485
AIST 1 26 Jun 05:52:34 05:56:36 41° 267° (W) 06:00:35
AO-85 26 Jun 05:56:12 06:00:31 31° 31° (NNE) 06:04:30 145.980
O/OREOS (USA 219) 26 Jun 05:58:22 06:02:06 25° 313° (NW) 06:05:51 437.305
PCSat 26 Jun 06:11:00 06:15:35 27° 328° (NNW) 06:20:10 145.827
NOAA 18 26 Jun 06:14:08 06:15:21 11° 83° (E) 06:16:34 137.9125
NOAA 15 26 Jun 06:14:22 06:16:48 13° 85° (E) 06:19:15 137.62
Gurwin Techsat 1B 26 Jun 06:14:55 06:16:42 12° 313° (NW) 06:18:28 435.225
BEESAT 2 26 Jun 06:20:49 06:24:29 34° 322° (NW) 06:28:12 435.950
BRITE-PL 26 Jun 06:32:07 06:34:26 14° 88° (E) 06:36:44 437.365/2234.400
ITAMSAT 1 26 Jun 06:35:38 06:38:54 17° 307° (NW) 06:42:08 435.822/435.867
AIST 2 26 Jun 06:39:09 06:42:58 38° 121° (ESE) 06:46:49 435.215
Cubesat XI-IV 26 Jun 06:40:36 06:44:04 17° 87° (E) 06:47:31 437.490
LilacSat-2 26 Jun 06:46:32 06:48:37 14° 89° (E) 06:50:42 437.200
CUSAT 1 26 Jun 06:55:46 06:59:29 15° 80° (E) 07:02:58 437.405
CUBESAT XI-V 26 Jun 06:56:53 07:00:54 27° 267° (W) 07:04:55 437.345
STRAND 1 26 Jun 07:09:23 07:14:18 47° 67° (ENE) 07:19:15 437.568
CUTE-I 26 Jun 07:15:02 07:19:50 32° 95° (E) 07:24:35 437.470
HORYU 2 26 Jun 07:17:53 07:22:12 47° 292° (WNW) 07:26:30 437.375
GOMX 1 26 Jun 07:19:17 07:22:23 20° 91° (E) 07:25:31 467.674
BEESAT 3 26 Jun 07:28:45 07:30:54 14° 343° (NNW) 07:33:02 437.485
AO-7 26 Jun 07:30:41 07:38:03 36° 310° (NW) 07:45:24 29.400- 29.500
Cosmos 2499 26 Jun 07:31:55 07:40:49 76° 265° (W) 07:49:16 435.465 / 435.565
AO-85 26 Jun 07:36:43 07:41:22 62° 234° (SW) 07:45:35 145.980
GONETS M04 26 Jun 07:39:24 07:47:44 53° 271° (W) 07:56:05
NOAA 18 26 Jun 07:51:36 07:57:08 63° 103° (ESE) 08:02:38 137.9125
NOAA 15 26 Jun 07:52:10 07:57:28 79° 105° (ESE) 08:02:44 137.62
PCSat 26 Jun 07:57:49 08:00:52 15° 354° (N) 08:03:55 145.827
PRISM 26 Jun 07:59:44 08:03:05 24° 62° (ENE) 08:06:25 437.425
HO-68 26 Jun 08:00:45 08:04:36 15° 83° (E) 08:08:26 435.675
BEESAT 2 26 Jun 08:01:24 08:03:27 13° 345° (NNW) 08:05:30 435.950
BRITE-PL 26 Jun 08:09:18 08:13:30 66° 287° (WNW) 08:17:36 437.365/2234.400
CINEMA 3 26 Jun 08:12:26 08:14:11 12° 86° (E) 08:15:58 145.822/145.860
CANX-2 26 Jun 08:16:16 08:18:01 12° 86° (E) 08:19:46 2200.000
AIST 2 26 Jun 08:17:37 08:21:29 37° 322° (NW) 08:25:23 435.215
Cubesat XI-IV 26 Jun 08:19:25 08:24:51 85° 287° (WNW) 08:30:15 437.490
LilacSat-2 26 Jun 08:19:30 08:23:21 64° 287° (WNW) 08:27:11 437.200
DANDE 26 Jun 08:30:28 08:38:01 39° 89° (E) 08:45:01 436.750
DOVE 4 26 Jun 08:32:34 08:36:42 49° 100° (E) 08:40:59 437.250
CUSAT 1 26 Jun 08:33:03 08:40:43 63° 97° (E) 08:47:08 437.405
CUTE 1.7 + AOD 2 26 Jun 08:35:58 08:38:46 17° 89° (E) 08:41:33 437.475
SEEDS 26 Jun 08:45:07 08:47:39 15° 88° (E) 08:50:09 437.485
STRAND 1 26 Jun 08:49:14 08:53:41 29° 266° (W) 08:58:12 437.568
CUTE-I 26 Jun 08:54:54 09:00:04 47° 294° (WNW) 09:05:12 437.470
GOMX 1 26 Jun 08:56:47 09:00:47 48° 290° (WNW) 09:04:51 467.674
BEESAT 3 26 Jun 09:08:49 09:10:12 11° 7° (N) 09:11:36 437.485
UWE-3 26 Jun 09:20:28 09:22:50 14° 87° (E) 09:25:13 435.000/436.395/437.385
AO-7 26 Jun 09:24:41 09:28:27 14° 335° (NNW) 09:32:15 29.400- 29.500
Cosmos 2499 26 Jun 09:26:36 09:32:25 20° 287° (WNW) 09:38:07 435.465 / 435.565
AAUSAT CUBESAT 2 26 Jun 09:31:15 09:34:45 25° 93° (E) 09:38:11 437.432
TIGRISAT 26 Jun 09:32:26 09:35:15 17° 58° (ENE) 09:38:06 435.000
NOAA 18 26 Jun 09:32:52 09:37:25 27° 303° (WNW) 09:42:00 137.9125
NOAA 15 26 Jun 09:32:53 09:36:42 21° 305° (NW) 09:40:29 137.62
PRISM 26 Jun 09:34:12 09:38:11 44° 261° (W) 09:42:11 437.425
UNISAT 6 26 Jun 09:36:19 09:39:24 19° 59° (ENE) 09:42:33 437.425
AUBIESAT-1 26 Jun 09:37:06 09:37:43 10° 95° (E) 09:38:22 437.475
GONETS M04 26 Jun 09:39:40 09:42:22 12° 294° (WNW) 09:45:03
BEESAT 2 26 Jun 09:41:19 09:42:56 12° 9° (N) 09:44:34 435.950
PCSat 26 Jun 09:42:40 09:46:28 19° 20° (NNE) 09:50:15 145.827
HO-68 26 Jun 09:46:30 09:53:43 68° 104° (ESE) 10:00:53 435.675
CINEMA 3 26 Jun 09:47:30 09:51:57 87° 101° (E) 09:56:37 145.822/145.860
CANX-2 26 Jun 09:50:10 09:54:31 87° 284° (WNW) 09:58:48 2200.000
AIST 2 26 Jun 09:58:44 10:01:05 14° 345° (NNW) 10:03:26 435.215
Cubesat XI-IV 26 Jun 10:00:40 10:04:13 18° 307° (NW) 10:07:44 437.490
COMPASS 1 26 Jun 10:02:17 10:06:29 61° 101° (E) 10:10:37 437.405
CUBEBUG 2 26 Jun 10:02:25 10:06:46 44° 98° (E) 10:11:14 437.445
DELFI C3 26 Jun 10:06:30 10:07:55 12° 87° (E) 10:09:20 145.870
CUTE 1.7 + AOD 2 26 Jun 10:10:47 10:15:03 63° 288° (WNW) 10:19:16 437.475
DOVE 4 26 Jun 10:10:57 10:14:11 22° 298° (WNW) 10:17:30 437.250
M-CUBED/EXP-1 PRIME 26 Jun 10:11:52 10:15:07 27° 103° (ESE) 10:18:34 437.505
DANDE 26 Jun 10:12:16 10:20:38 64° 287° (WNW) 10:28:15 436.750
ANTELSAT 26 Jun 10:15:01 10:19:03 40° 67° (ENE) 10:23:11 437.575/2403.000
CUSAT 1 26 Jun 10:16:18 10:23:05 34° 294° (WNW) 10:28:53 437.405
SEEDS 26 Jun 10:19:35 10:23:50 68° 287° (WNW) 10:28:02 437.485
NANOSAT C BR1 26 Jun 10:24:38 10:26:02 11° 54° (NE) 10:27:26 145.865
QB50P1 26 Jun 10:25:44 10:27:27 12° 55° (NE) 10:29:11 145.935-145.965
POPSAT HIP 1 26 Jun 10:28:31 10:30:23 13° 55° (NE) 10:32:16 437.405
CUTE-I 26 Jun 10:37:50 10:38:53 11° 315° (NW) 10:39:58 437.470
QB50P2 26 Jun 10:39:12 10:41:52 17° 58° (ENE) 10:44:34 145.880/145.840
ZACube-1 26 Jun 10:40:15 10:44:39 50° 99° (E) 10:49:06 437.345
HUMSAT D 26 Jun 10:41:29 10:43:56 15° 88° (E) 10:46:22 437.325/437.525
POLYITAN 1 26 Jun 10:41:46 10:44:29 17° 58° (ENE) 10:47:13 437.675
DUCHIFAT 1 26 Jun 10:45:05 10:47:41 16° 58° (ENE) 10:50:18 145.980
BEESAT 3 26 Jun 10:46:02 10:49:15 23° 30° (NNE) 10:52:28 437.485
PHONESAT 2.4 26 Jun 10:54:33 10:55:55 12° 178° (S) 10:57:17 2401.200-2431.200
UWE-3 26 Jun 10:55:19 10:59:53 85° 283° (WNW) 11:04:30 435.000/436.395/437.385
Oscar 11 26 Jun 10:55:23 10:59:47 72° 103° (ESE) 11:04:07 145.826/435.025
FUNcube-1 26 Jun 10:59:15 11:03:46 71° 103° (ESE) 11:08:19 145.935
RS-15 26 Jun 11:02:06 11:07:25 14° 91° (E) 11:12:47 29.354- 29.394
Cosmos 2491 26 Jun 11:03:48 11:10:54 27° 56° (NE) 11:17:58 435.465 / 435.565
AAUSAT CUBESAT 2 26 Jun 11:06:27 11:10:22 39° 292° (WNW) 11:14:15 437.432
TIGRISAT 26 Jun 11:07:09 11:11:26 71° 258° (WSW) 11:15:51 435.000
AUBIESAT-1 26 Jun 11:08:55 11:12:41 88° 114° (ESE) 11:16:44 437.475
UNISAT 6 26 Jun 11:11:26 11:15:43 62° 259° (W) 11:20:06 437.425
JAS-2 26 Jun 11:15:24 11:20:41 22° 52° (NE) 11:25:38 435.910
BEESAT 2 26 Jun 11:18:41 11:22:05 26° 32° (NNE) 11:25:28 435.950
PCSat 26 Jun 11:25:53 11:31:10 48° 44° (NE) 11:36:26 145.827
CINEMA 3 26 Jun 11:26:03 11:28:34 15° 302° (WNW) 11:31:08 145.822/145.860
CANX-2 26 Jun 11:27:37 11:29:43 13° 304° (NW) 11:31:48 2200.000
ISS 26 Jun 11:28:24 11:31:27 37° 152° (SSE) 11:34:31 145.825
HO-68 26 Jun 11:34:45 11:41:01 34° 305° (NW) 11:47:17 435.675
COMPASS 1 26 Jun 11:38:44 11:41:39 18° 300° (WNW) 11:44:33 437.405
AIST 2 26 Jun 11:39:19 11:41:14 13° 9° (N) 11:43:11 435.215
DELFI C3 26 Jun 11:39:19 11:43:22 82° 285° (WNW) 11:47:21 145.870
CUBEBUG 2 26 Jun 11:39:25 11:43:14 27° 296° (WNW) 11:47:07 437.445
M-CUBED/EXP-1 PRIME 26 Jun 11:46:22 11:49:42 33° 299° (WNW) 11:53:16 437.505
CUTE 1.7 + AOD 2 26 Jun 11:49:41 11:50:02 10° 307° (NW) 11:50:23 437.475
BUGSAT 1 26 Jun 11:50:32 11:54:05 30° 65° (ENE) 11:57:37 437.445
ANTELSAT 26 Jun 11:52:16 11:55:55 26° 267° (W) 11:59:40 437.575/2403.000
NANOSAT C BR1 26 Jun 11:56:52 12:01:02 75° 74° (ENE) 12:05:15 145.865
SEEDS 26 Jun 11:57:43 11:58:44 11° 306° (NW) 11:59:44 437.485
QB50P1 26 Jun 11:58:22 12:02:33 81° 74° (ENE) 12:06:46 145.935-145.965
DANDE 26 Jun 11:59:13 12:04:52 20° 308° (NW) 12:10:07 436.750
POPSAT HIP 1 26 Jun 12:01:20 12:05:30 85° 79° (ENE) 12:09:45 437.405
DX 1 26 Jun 12:11:30 12:12:53 11° 86° (E) 12:14:18 434.975-435.025
QB50P2 26 Jun 12:13:01 12:17:13 70° 257° (WSW) 12:21:27 145.880/145.840
POLYITAN 1 26 Jun 12:15:40 12:19:50 68° 258° (WSW) 12:24:03 437.675
HUMSAT D 26 Jun 12:15:45 12:20:04 74° 286° (WNW) 12:24:22 437.325/437.525
ZACube-1 26 Jun 12:17:04 12:20:41 24° 298° (WNW) 12:24:21 437.345
DUCHIFAT 1 26 Jun 12:18:45 12:22:54 71° 258° (WSW) 12:27:06 145.980
BEESAT 3 26 Jun 12:23:24 12:27:22 76° 233° (SW) 12:31:19 437.485
Oscar 11 26 Jun 12:32:35 12:35:25 17° 302° (WNW) 12:38:14 145.826/435.025
UWE-3 26 Jun 12:33:18 12:35:41 14° 304° (NW) 12:38:05 435.000/436.395/437.385
CUBEBUG 1 26 Jun 12:35:00 12:38:39 26° 94° (E) 12:42:16 437.445
VELOX 1 26 Jun 12:36:26 12:40:05 25° 94° (E) 12:43:42 145.980
FUNcube-1 26 Jun 12:36:29 12:39:33 18° 301° (WNW) 12:42:38 145.935
Gurwin Techsat 1B 26 Jun 12:42:24 12:45:11 14° 50° (NE) 12:47:58 435.225
Oscar 19 26 Jun 12:43:33 12:47:44 26° 59° (ENE) 12:51:56 437.125/150
O/OREOS (USA 219) 26 Jun 12:43:47 12:47:59 38° 53° (NE) 12:52:10 437.305
AUBIESAT-1 26 Jun 12:44:55 12:46:44 13° 308° (NW) 12:48:36 437.475
YUBILEINY 26 Jun 12:53:43 13:01:11 34° 81° (E) 13:08:42 435.215
BEESAT 2 26 Jun 12:56:17 13:00:15 64° 234° (SW) 13:04:12 435.950
JAS-2 26 Jun 12:57:16 13:04:53 77° 72° (ENE) 13:11:48 435.910
50 SAT 26 Jun 12:58:42 13:02:16 42° 99° (E) 13:05:47 437.505
Cosmos 2491 26 Jun 13:00:17 13:09:04 90° 265° (W) 13:17:48 435.465 / 435.565
ESTCUBE 1 26 Jun 13:02:06 13:06:37 66° 101° (ESE) 13:11:05 437.505/2401.250
AO-7 26 Jun 13:02:19 13:06:57 16° 30° (NNE) 13:11:36 29.400- 29.500
ISS 26 Jun 13:04:29 13:07:46 84° 352° (N) 13:11:03 145.825
RS-15 26 Jun 13:05:45 13:16:46 56° 116° (ESE) 13:28:23 29.354- 29.394
PCSat 26 Jun 13:09:31 13:14:30 38° 245° (WSW) 13:19:27 145.827
DELFI C3 26 Jun 13:16:11 13:17:33 12° 305° (NW) 13:18:55 145.870
AISAT 26 Jun 13:16:32 13:20:55 61° 102° (ESE) 13:25:15 437.250
AIST 2 26 Jun 13:17:30 13:21:04 27° 33° (NNE) 13:24:37 435.215
HO-68 26 Jun 13:25:11 13:26:40 11° 329° (NNW) 13:28:09 435.675
BUGSAT 1 26 Jun 13:25:54 13:29:28 30° 264° (W) 13:33:02 437.445
UKube-1 26 Jun 13:30:13 13:34:27 51° 101° (E) 13:38:38 .
TISAT 1 26 Jun 13:31:59 13:33:42 12° 87° (E) 13:35:24 437.305
NANOSAT C BR1 26 Jun 13:35:11 13:37:19 14° 272° (W) 13:39:27 145.865
SPROUT 26 Jun 13:36:32 13:40:40 44° 99° (E) 13:44:46 437.525
QB50P1 26 Jun 13:37:04 13:38:55 13° 273° (W) 13:40:47 145.935-145.965
POPSAT HIP 1 26 Jun 13:40:18 13:41:56 12° 273° (W) 13:43:33 437.405
Cosmos 2504 26 Jun 13:40:49 13:46:37 22° 74° (ENE) 13:52:40 435.465 / 435.565
DX 1 26 Jun 13:45:24 13:49:46 87° 103° (ESE) 13:54:07 434.975-435.025
HUMSAT D 26 Jun 13:53:23 13:54:57 12° 306° (NW) 13:56:30 437.325/437.525
BEESAT 3 26 Jun 14:03:34 14:04:21 10° 250° (WSW) 14:05:07 437.485
CUBEBUG 1 26 Jun 14:11:02 14:15:05 40° 293° (WNW) 14:19:07 437.445
VELOX 1 26 Jun 14:12:33 14:16:44 43° 292° (WNW) 14:20:53 145.980
Gurwin Techsat 1B 26 Jun 14:18:58 14:24:14 68° 70° (ENE) 14:29:32 435.225
Oscar 19 26 Jun 14:21:40 14:26:45 58° 259° (W) 14:31:51 437.125/150
O/OREOS (USA 219) 26 Jun 14:23:21 14:27:20 32° 253° (WSW) 14:31:19 437.305
SWISSCUBE 26 Jun 14:25:41 14:27:02 11° 85° (E) 14:28:23 437.505
50 SAT 26 Jun 14:32:57 14:35:42 20° 298° (WNW) 14:38:26 437.505
ITAMSAT 1 26 Jun 14:38:58 14:43:52 43° 65° (ENE) 14:48:48 435.822/435.867
ESTCUBE 1 26 Jun 14:39:48 14:43:00 19° 302° (WNW) 14:46:11 437.505/2401.250
ISS 26 Jun 14:41:00 14:44:17 89° 11° (N) 14:47:35 145.825
JAS-2 26 Jun 14:44:12 14:50:27 27° 270° (W) 14:56:18 435.910
YUBILEINY 26 Jun 14:48:43 14:57:23 68° 284° (WNW) 15:06:11 435.215
ITUPSAT 1 26 Jun 14:49:18 14:52:22 17° 89° (E) 14:55:25 437.325
BEESAT 26 Jun 14:49:49 14:52:57 17° 89° (E) 14:56:05 436.000
AO-7 26 Jun 14:49:58 14:57:41 44° 55° (NE) 15:05:27 29.400- 29.500
AISAT 26 Jun 14:53:50 14:57:00 20° 301° (WNW) 15:00:10 437.250
AIST 2 26 Jun 14:55:46 14:59:55 65° 232° (SW) 15:04:01 435.215
Cosmos 2491 26 Jun 14:58:19 15:04:44 24° 284° (WNW) 15:11:11 435.465 / 435.565
TISAT 1 26 Jun 15:05:44 15:09:57 84° 286° (WNW) 15:14:10 437.305
UKube-1 26 Jun 15:06:52 15:10:12 22° 300° (WNW) 15:13:32 .
SPROUT 26 Jun 15:12:57 15:16:24 24° 297° (WNW) 15:19:51 437.525
RS-15 26 Jun 15:17:40 15:29:15 64° 323° (NW) 15:41:28 29.354- 29.394
DX 1 26 Jun 15:22:58 15:25:22 15° 304° (NW) 15:27:46 434.975-435.025
Cosmos 2504 26 Jun 15:30:28 15:38:39 83° 97° (E) 15:47:25 435.465 / 435.565
Gurwin Techsat 1B 26 Jun 16:00:42 16:04:42 21° 270° (W) 16:08:43 435.225
SWISSCUBE 26 Jun 16:00:51 16:05:42 75° 104° (ESE) 16:10:29 437.505
KKS-1 26 Jun 16:16:51 16:19:29 15° 89° (E) 16:22:09 437.445
ISS 26 Jun 16:17:34 16:20:32 31° 211° (SSW) 16:23:29 145.825
ITAMSAT 1 26 Jun 16:18:46 16:23:27 33° 265° (W) 16:28:12 435.822/435.867
ITUPSAT 1 26 Jun 16:25:57 16:30:47 76° 288° (WNW) 16:35:35 437.325
SO-50 26 Jun 16:26:17 16:29:08 16° 111° (ESE) 16:31:59 436.795
BEESAT 26 Jun 16:26:29 16:31:17 74° 289° (WNW) 16:36:04 436.000
AO-7 26 Jun 16:42:05 16:50:16 59° 257° (WSW) 16:58:34 29.400- 29.500
TISAT 1 26 Jun 16:43:06 16:44:57 13° 305° (NW) 16:46:49 437.305
HORYU 2 26 Jun 16:44:17 16:48:27 41° 66° (ENE) 16:52:38 437.375
YUBILEINY 26 Jun 16:50:10 16:56:12 20° 311° (NW) 17:02:17 435.215
AIST 1 26 Jun 16:53:06 16:53:52 10° 80° (E) 16:54:39
STARS 26 Jun 16:54:56 16:58:05 19° 91° (E) 17:01:14 437.465
CUTE-I 26 Jun 17:04:31 17:07:50 17° 52° (NE) 17:11:10 437.470
MOZHAYETS 4 26 Jun 17:25:49 17:30:27 62° 101° (E) 17:35:03
Cosmos 2504 26 Jun 17:26:10 17:33:11 29° 302° (WNW) 17:40:36 435.465 / 435.565
RS-15 26 Jun 17:33:11 17:44:25 43° 356° (N) 17:56:02 29.354- 29.394
LilacSat-2 26 Jun 17:33:41 17:35:56 15° 60° (ENE) 17:38:12 437.200
NOAA 15 26 Jun 17:38:20 17:43:08 36° 63° (ENE) 17:47:56 137.62
SWISSCUBE 26 Jun 17:39:36 17:42:59 19° 303° (WNW) 17:46:20 437.505
NOAA 18 26 Jun 17:43:27 17:48:21 35° 61° (ENE) 17:53:17 137.9125
BRITE-PL 26 Jun 17:46:42 17:51:10 34° 66° (ENE) 17:55:21 437.365/2234.400
KKS-1 26 Jun 17:52:08 17:56:35 73° 288° (WNW) 18:01:01 437.445
SO-50 26 Jun 18:04:02 18:08:57 83° 128° (SE) 18:13:49 436.795
ITUPSAT 1 26 Jun 18:05:21 18:07:51 14° 307° (NW) 18:10:20 437.325
BEESAT 26 Jun 18:05:55 18:08:17 14° 308° (NW) 18:10:39 436.000
Cubesat XI-IV 26 Jun 18:07:01 18:12:04 44° 65° (ENE) 18:17:10 437.490
DOVE 4 26 Jun 18:08:18 18:10:14 13° 57° (ENE) 18:12:10 437.250
HORYU 2 26 Jun 18:21:22 18:25:09 27° 266° (W) 18:28:57 437.375
Cosmos 2499 26 Jun 18:23:52 18:29:39 21° 73° (ENE) 18:35:36 435.465 / 435.565
AIST 1 26 Jun 18:26:23 18:30:44 85° 95° (E) 18:35:03
STARS 26 Jun 18:30:29 18:34:49 57° 290° (WNW) 18:39:08 437.465
GOMX 1 26 Jun 18:31:55 18:36:11 40° 68° (ENE) 18:40:14 467.674
HO-68 26 Jun 18:34:57 18:40:18 23° 48° (NE) 18:45:40 435.675
AO-7 26 Jun 18:41:16 18:44:59 13° 279° (W) 18:48:43 29.400- 29.500
CUTE-I 26 Jun 18:41:45 18:47:06 80° 72° (ENE) 18:52:31 437.470
CUBESAT XI-V 26 Jun 18:47:21 18:51:55 53° 100° (E) 18:56:26 437.345
GONETS M04 26 Jun 18:50:16 18:58:12 42° 85° (E) 19:06:08
MOZHAYETS 4 26 Jun 19:03:45 19:07:14 21° 301° (WNW) 19:10:42
CUSAT 1 26 Jun 19:04:41 19:08:59 47° 70° (ENE) 19:12:18 437.405
LilacSat-2 26 Jun 19:06:04 19:09:49 62° 259° (W) 19:13:37 437.200
DANDE 26 Jun 19:06:18 19:11:27 29° 60° (ENE) 19:15:28 436.750
CANX-2 26 Jun 19:13:25 19:16:19 18° 59° (ENE) 19:19:14 2200.000
STRAND 1 26 Jun 19:17:32 19:18:29 10° 83° (E) 19:19:27 437.568
NOAA 15 26 Jun 19:17:53 19:22:52 41° 262° (W) 19:27:53 137.62
CINEMA 3 26 Jun 19:18:47 19:21:42 19° 60° (ENE) 19:24:37 145.822/145.860
NOAA 18 26 Jun 19:23:41 19:28:54 45° 261° (W) 19:34:12 137.9125
BRITE-PL 26 Jun 19:25:00 19:29:39 37° 263° (W) 19:34:00 437.365/2234.400
COMPASS 1 26 Jun 19:25:16 19:26:51 12° 55° (NE) 19:28:25 437.405
KKS-1 26 Jun 19:30:37 19:32:23 12° 307° (NW) 19:34:10 437.445
CUTE 1.7 + AOD 2 26 Jun 19:33:14 19:36:39 23° 62° (ENE) 19:40:04 437.475
SEEDS 26 Jun 19:41:25 19:44:39 21° 61° (ENE) 19:47:53 437.485
DOVE 4 26 Jun 19:43:04 19:47:23 89° 77° (ENE) 19:51:35 437.250
SO-50 26 Jun 19:45:45 19:49:58 28° 331° (NNW) 19:54:09 436.795
Cubesat XI-IV 26 Jun 19:47:28 19:52:17 33° 265° (W) 19:57:09 437.490
RS-15 26 Jun 19:48:06 20:00:04 55° 29° (NNE) 20:12:08 29.354- 29.394
AIST 1 26 Jun 20:06:51 20:08:59 13° 299° (WNW) 20:11:07
ZACube-1 26 Jun 20:08:18 20:09:31 11° 53° (NE) 20:10:44 437.345
GOMX 1 26 Jun 20:10:30 20:14:24 27° 266° (W) 20:18:09 467.674
Cosmos 2499 26 Jun 20:12:58 20:21:19 79° 96° (E) 20:30:11 435.465 / 435.565
HO-68 26 Jun 20:19:56 20:27:05 81° 70° (ENE) 20:34:19 435.675
Oscar 11 26 Jun 20:20:52 20:23:27 16° 57° (ENE) 20:26:02 145.826/435.025
UWE-3 26 Jun 20:22:16 20:25:20 20° 60° (ENE) 20:28:26 435.000/436.395/437.385
CUTE-I 26 Jun 20:24:12 20:27:49 18° 272° (W) 20:31:27 437.470
CUBESAT XI-V 26 Jun 20:25:20 20:29:00 24° 299° (WNW) 20:32:39 437.345
FUNcube-1 26 Jun 20:25:43 20:28:06 15° 57° (ENE) 20:30:31 145.935
AAUSAT CUBESAT 2 26 Jun 20:26:04 20:29:49 32° 66° (ENE) 20:33:33 437.432
AUBIESAT-1 26 Jun 20:26:31 20:29:20 26° 59° (ENE) 20:32:12 437.475
GONETS M04 26 Jun 20:46:18 20:54:49 56° 288° (WNW) 21:03:22
CANX-2 26 Jun 20:47:29 20:51:44 66° 258° (WSW) 20:56:03 2200.000
CUSAT 1 26 Jun 20:48:01 20:50:20 15° 279° (W) 20:52:22 437.405
DANDE 26 Jun 20:49:11 20:54:36 43° 269° (W) 20:58:39 436.750
STRAND 1 26 Jun 20:53:31 20:58:41 66° 103° (ESE) 21:03:48 437.568
CINEMA 3 26 Jun 20:54:25 20:58:30 56° 260° (W) 21:02:38 145.822/145.860
DELFI C3 26 Jun 20:56:57 20:59:20 15° 59° (ENE) 21:01:44 145.870
COMPASS 1 26 Jun 20:57:28 21:01:41 77° 75° (ENE) 21:05:56 437.405
M-CUBED/EXP-1 PRIME 26 Jun 21:03:31 21:06:47 85° 69° (ENE) 21:10:06 437.505
CUBEBUG 2 26 Jun 21:05:25 21:09:33 64° 72° (ENE) 21:13:48 437.445
CUTE 1.7 + AOD 2 26 Jun 21:08:06 21:12:14 47° 261° (W) 21:16:25 437.475
PRISM 26 Jun 21:11:22 21:14:09 17° 91° (E) 21:16:55 437.425
SEEDS 26 Jun 21:15:53 21:20:02 52° 260° (W) 21:24:14 437.485
DOVE 4 26 Jun 21:24:27 21:25:44 11° 273° (W) 21:27:01 437.250
SO-50 26 Jun 21:28:55 21:31:58 16° 355° (N) 21:34:57 436.795
HUMSAT D 26 Jun 21:37:26 21:40:30 20° 60° (ENE) 21:43:35 437.325/437.525
ZACube-1 26 Jun 21:40:48 21:44:59 70° 73° (ENE) 21:49:18 437.345
Oscar 11 26 Jun 21:54:40 21:59:02 81° 258° (WSW) 22:03:25 145.826/435.025
AO-85 26 Jun 21:56:39 21:59:52 16° 110° (ESE) 22:03:02 145.980
UWE-3 26 Jun 21:57:18 22:01:26 56° 260° (W) 22:05:41 435.000/436.395/437.385
FUNcube-1 26 Jun 21:59:32 22:03:45 82° 257° (WSW) 22:08:06 145.935
AUBIESAT-1 26 Jun 22:01:06 22:03:52 25° 258° (WSW) 22:06:42 437.475
RS-15 26 Jun 22:01:13 22:13:28 75° 237° (WSW) 22:25:41 29.354- 29.394
AAUSAT CUBESAT 2 26 Jun 22:01:32 22:05:17 31° 265° (W) 22:09:04 437.432
Cosmos 2499 26 Jun 22:08:07 22:15:28 31° 301° (WNW) 22:23:10 435.465 / 435.565
HO-68 26 Jun 22:09:59 22:15:37 25° 270° (W) 22:21:19 435.675
DELFI C3 26 Jun 22:29:41 22:33:43 72° 258° (WSW) 22:37:46 145.870
ESTCUBE 1 26 Jun 22:31:32 22:34:30 17° 57° (ENE) 22:37:29 437.505/2401.250
STRAND 1 26 Jun 22:33:25 22:37:27 23° 302° (WNW) 22:41:27 437.568
COMPASS 1 26 Jun 22:35:43 22:37:48 13° 273° (W) 22:39:54 437.405
CUBEBUG 2 26 Jun 22:44:06 22:46:41 16° 272° (W) 22:49:18 437.445
AISAT 26 Jun 22:44:24 22:47:02 16° 57° (ENE) 22:49:40 437.250
PRISM 26 Jun 22:45:48 22:49:50 55° 289° (WNW) 22:53:48 437.425
GONETS M04 26 Jun 22:49:01 22:54:04 16° 315° (NW) 22:59:09
TIGRISAT 26 Jun 22:54:07 22:57:18 18° 90° (E) 23:00:30 435.000
YUBILEINY 26 Jun 22:56:06 23:02:57 24° 54° (NE) 23:09:46 435.215
UKube-1 26 Jun 22:56:12 22:58:13 13° 54° (NE) 23:00:15 .
UNISAT 6 26 Jun 22:58:20 23:01:49 21° 91° (E) 23:05:20 437.425
SPROUT 26 Jun 23:03:11 23:03:44 10° 53° (NE) 23:04:18 437.525
SO-50 26 Jun 23:10:31 23:14:08 21° 20° (NNE) 23:17:41 436.795
DX 1 26 Jun 23:10:52 23:14:05 21° 60° (ENE) 23:17:18 434.975-435.025
HUMSAT D 26 Jun 23:11:40 23:15:46 55° 260° (W) 23:19:57 437.325/437.525
ZACube-1 26 Jun 23:19:24 23:21:49 15° 272° (W) 23:24:17 437.345
Cosmos 2504 26 Jun 23:24:42 23:29:09 14° 41° (NE) 23:33:35 435.465 / 435.565
AO-85 26 Jun 23:34:18 23:39:42 78° 128° (SE) 23:44:52 145.980
Oscar 11 26 Jun 23:35:05 23:35:54 10° 275° (W) 23:36:45 145.826/435.025
CUBEBUG 1 26 Jun 23:35:29 23:39:34 40° 68° (ENE) 23:43:39 437.445
ANTELSAT 26 Jun 23:37:37 23:42:04 45° 99° (E) 23:46:34 437.575/2403.000
VELOX 1 26 Jun 23:38:15 23:42:22 41° 67° (ENE) 23:46:32 145.980
FUNcube-1 26 Jun 23:40:12 23:40:46 10° 276° (W) 23:41:20 145.935
50 SAT 26 Jun 23:41:08 23:44:39 42° 69° (ENE) 23:48:12 437.505
QB50P2 26 Jun 23:54:11 23:56:28 14° 88° (E) 23:58:44 145.880/145.840
POLYITAN 1 26 Jun 23:56:45 23:59:06 14° 88° (E) 00:01:26 437.675
DUCHIFAT 1 26 Jun 23:59:14 00:01:19 13° 88° (E) 00:03:24 145.980
ESTCUBE 1 27 Jun 00:06:15 00:10:48 76° 258° (WSW) 00:15:22 437.505/2401.250
Cosmos 2491 27 Jun 00:13:53 00:20:13 23° 76° (ENE) 00:26:32 435.465 / 435.565
RS-15 27 Jun 00:15:00 00:23:53 24° 261° (W) 00:32:46 29.354- 29.394
AISAT 27 Jun 00:18:32 00:22:57 82° 256° (WSW) 00:27:23 437.250
TISAT 1 27 Jun 00:27:58 00:30:53 19° 60° (ENE) 00:33:50 437.305
UKube-1 27 Jun 00:29:16 00:33:36 83° 72° (ENE) 00:37:57 .
TIGRISAT 27 Jun 00:29:50 00:34:25 66° 288° (WNW) 00:39:03 435.000
UNISAT 6 27 Jun 00:34:21 00:38:53 58° 289° (WNW) 00:43:28 437.425
SPROUT 27 Jun 00:34:40 00:38:52 64° 71° (ENE) 00:43:06 437.525
DX 1 27 Jun 00:45:39 00:49:55 57° 258° (WSW) 00:54:14 434.975-435.025
SO-50 27 Jun 00:50:52 00:55:35 58° 43° (NE) 01:00:07 436.795
YUBILEINY 27 Jun 00:52:26 01:01:20 81° 78° (ENE) 01:10:12 435.215
BUGSAT 1 27 Jun 01:02:14 01:05:39 26° 94° (E) 01:09:07 437.445
NANOSAT C BR1 27 Jun 01:11:47 01:16:01 69° 103° (ESE) 01:20:15 145.865
CUBEBUG 1 27 Jun 01:12:19 01:16:00 26° 266° (W) 01:19:41 437.445
QB50P1 27 Jun 01:13:38 01:17:54 76° 104° (ESE) 01:22:09 145.935-145.965
ANTELSAT 27 Jun 01:14:43 01:18:36 28° 297° (WNW) 01:22:32 437.575/2403.000
VELOX 1 27 Jun 01:15:16 01:19:00 26° 266° (W) 01:22:44 145.980
50 SAT 27 Jun 01:15:49 01:18:32 19° 268° (W) 01:21:17 437.505
AO-85 27 Jun 01:15:58 01:20:41 31° 329° (NNW) 01:25:10 145.980
POPSAT HIP 1 27 Jun 01:16:39 01:20:56 79° 104° (ESE) 01:25:12 437.405
Cosmos 2504 27 Jun 01:16:50 01:25:22 47° 68° (ENE) 01:33:41 435.465 / 435.565
QB50P2 27 Jun 01:28:31 01:32:48 75° 286° (WNW) 01:37:03 145.880/145.840
POLYITAN 1 27 Jun 01:31:08 01:35:25 74° 287° (WNW) 01:39:41 437.675
DUCHIFAT 1 27 Jun 01:33:19 01:37:34 78° 286° (WNW) 01:41:48 145.980
SWISSCUBE 27 Jun 01:35:40 01:39:30 24° 60° (ENE) 01:43:21 437.505
JAS-2 27 Jun 01:47:31 01:53:02 40° 95° (E) 01:58:03 435.910
ESTCUBE 1 27 Jun 01:47:33 01:48:24 10° 275° (W) 01:49:15 437.505/2401.250
AISAT 27 Jun 01:59:03 02:00:10 11° 274° (W) 02:01:18 437.250
ITUPSAT 1 27 Jun 02:00:22 02:04:40 34° 64° (ENE) 02:09:01 437.325
BEESAT 27 Jun 02:00:34 02:04:53 34° 64° (ENE) 02:09:13 436.000
TISAT 1 27 Jun 02:02:04 02:06:11 58° 259° (WSW) 02:10:19 437.305
Cosmos 2491 27 Jun 02:07:03 02:15:50 87° 98° (E) 02:24:38 435.465 / 435.565
UKube-1 27 Jun 02:08:15 02:10:15 13° 272° (W) 02:12:15 .
TIGRISAT 27 Jun 02:08:38 02:10:17 12° 307° (NW) 02:11:57 435.000
SPROUT 27 Jun 02:12:36 02:15:16 16° 271° (W) 02:17:56 437.525
UNISAT 6 27 Jun 02:13:51 02:14:42 10° 308° (NW) 02:15:31 437.425
PCSat 27 Jun 02:15:50 02:18:13 13° 103° (ESE) 02:20:38 145.827
Oscar 19 27 Jun 02:28:06 02:32:45 34° 96° (E) 02:37:23 437.125/150
Gurwin Techsat 1B 27 Jun 02:30:54 02:34:33 18° 88° (E) 02:38:11 435.225
SO-50 27 Jun 02:31:51 02:35:46 27° 244° (WSW) 02:39:35 436.795
BUGSAT 1 27 Jun 02:37:23 02:41:08 37° 293° (WNW) 02:44:55 437.445
NANOSAT C BR1 27 Jun 02:48:33 02:51:18 17° 301° (WNW) 02:54:03 145.865
YUBILEINY 27 Jun 02:50:11 02:57:12 28° 282° (WNW) 03:04:15 435.215
QB50P1 27 Jun 02:50:35 02:53:11 16° 302° (WNW) 02:55:45 145.935-145.965
POPSAT HIP 1 27 Jun 02:53:43 02:56:11 15° 303° (WNW) 02:58:40 437.405
MOZHAYETS 4 27 Jun 02:57:23 03:00:22 17° 57° (ENE) 03:03:21
AO-85 27 Jun 02:59:20 03:02:39 17° 352° (N) 03:05:49 145.980
O/OREOS (USA 219) 27 Jun 03:03:00 03:05:36 15° 100° (E) 03:08:11 437.305
QB50P2 27 Jun 03:06:20 03:07:52 12° 306° (NW) 03:09:25 145.880/145.840
POLYITAN 1 27 Jun 03:09:00 03:10:29 12° 306° (NW) 03:11:58 437.675
DUCHIFAT 1 27 Jun 03:10:56 03:12:34 12° 305° (NW) 03:14:11 145.980
SWISSCUBE 27 Jun 03:12:17 03:16:59 56° 259° (WSW) 03:21:45 437.505
KKS-1 27 Jun 03:19:15 03:22:57 27° 63° (ENE) 03:26:41 437.445
